This demonstration page uses our WeatherBlox Daily Observations layout. Learn more.

Left ArrowRight Arrow

Hourly Observations for June 1, 2017

Temp ( °F °C ) Dew Point ( °F °C ) Humidity (%) Winds ( mph kmh ) Pressure ( in mb ) Visibility ( mi km ) Precip ( " mm )
12:53 am 00:53 Clear 70 21.1 44 6.7 39 39 S 10 17 29.63 1004 10 16 0.00 0.00
1:53 am 01:53 Clear 65 18.3 45 7.2 49 49 W 9 15 29.68 1005 10 16 0.00 0.00
2:53 am 02:53 Clear 63 17.2 46 7.8 54 54 SSW 13 20 29.68 1005 10 16 0.00 0.00
3:53 am 03:53 Clear 63 17.2 47 8.3 56 56 Calm 29.67 1005 10 16 0.00 0.00
4:53 am 04:53 Mostly Clear 60 15.6 48 8.9 65 65 W 3 6 29.69 1006 10 16 0.00 0.00
5:53 am 05:53 Sunny 60 15.6 50 10 70 70 E 5 7 29.68 1005 10 16 0.00 0.00
6:53 am 06:53 Sunny 59 15 49 9.4 69 69 SSW 3 6 29.71 1006 10 16 0.00 0.00
7:53 am 07:53 Sunny 68 20 50 10 53 53 WSW 12 19 29.72 1007 10 16 0.00 0.00
8:53 am 08:53 Sunny 69 20.6 50 10 51 51 WSW 7 11 29.72 1006 10 16 0.00 0.00
9:53 am 09:53 Sunny 75 23.9 48 8.9 39 39 S 6 9 29.70 1006 10 16 0.00 0.00
10:53 am 10:53 Sunny 79 26.1 47 8.3 32 32 VRB 5 7 29.70 1006 10 16 0.00 0.00
11:53 am 11:53 Sunny 83 28.3 45 7.2 26 26 VRB 5 7 29.69 1005 10 16 0.00 0.00
12:53 pm 12:53 Sunny 84 28.9 44 6.7 25 25 VRB 3 6 29.67 1005 10 16 0.00 0.00
1:53 pm 13:53 Sunny 85 29.4 43 6.1 23 23 SE 5 7 29.66 1005 10 16 0.00 0.00
2:53 pm 14:53 Sunny 87 30.6 44 6.7 22 22 Calm 29.64 1004 10 16 0.00 0.00
3:53 pm 15:53 Sunny 87 30.6 44 6.7 22 22 SE 12 19 29.62 1003 10 16 0.00 0.00
4:53 pm 16:53 Sunny 86 30 44 6.7 23 23 VRB 5 7 29.60 1002 10 16 0.00 0.00
5:53 pm 17:53 Sunny 86 30 47 8.3 26 26 Calm 29.59 1002 10 16 0.00 0.00
6:53 pm 18:53 Sunny 84 28.9 47 8.3 27 27 SSW 6 9 29.57 1001 10 16 0.00 0.00
7:42 pm 19:42 Very Windy with Storms Likely 66 19 55 13 68 68 W 40 65 29.65 1004 6 10 0.00 0.00
7:53 pm 19:53 Very Windy with Storms Likely 61 16.1 57 13.9 87 87 W 39 63 29.71 1006 5 8 0.00 0.03
8:10 pm 20:10 Cloudy with Nearby Thunderstorms 61 16 57 14 88 88 WNW 21 33 29.65 1004 10 16 0.00 0.00
8:25 pm 20:25 Mostly Cloudy with Light Rain 61 16.1 57 13.9 87 87 WSW 12 19 29.71 1006 10 16 0.02 0.51
8:53 pm 20:53 Mostly Cloudy with Light Rain 61 16.1 58 14.4 90 90 WNW 9 15 29.71 1006 10 16 0.02 0.51
9:53 pm 21:53 Mostly Cloudy 60 15.6 57 13.9 90 90 SSE 9 15 29.72 1006 10 16 0.00 0.03
10:53 pm 22:53 Mostly Clear 58 14.4 56 13.3 93 93 SW 6 9 29.76 1008 10 16 0.00 0.00
11:53 pm 23:53 Clear 57 13.9 55 12.8 93 93 SW 8 13 29.73 1007 10 16 0.00 0.00

Powered by AerisWeather